,

(GMT )
Lac Benoit

Weather History for CWDE - July, 2013

Change the Weather History Date:

Monday, July 22, 2013

  Actual Average Record
Temperature  
Mean Temperature 56 °F -  
Max Temperature 68 °F - - ()
Min Temperature 44 °F - - ()
Degree Days  
Heating Degree Days 9    
Growing Degree Days 6 (Base 50)    
Moisture  
Dew Point 47 °F    
Average Humidity 75    
Maximum Humidity 99    
Minimum Humidity 47    
Precipitation  
Precipitation 0.01 in - - ()
Sea Level Pressure  
Sea Level Pressure 29.85 in    
Wind  
Wind Speed 9 mph ()    
Max Wind Speed 20 mph    
Max Gust Speed -    
T = Trace of Precipitation, MM = Missing Value Source: Averaged Metar Reports

Daily Weather History Graph

Daily Weather History Graph

Search for Another Location

Airport or City:

Trip Planner

Search our weather history database for the weather conditions in past years. The results will help you decide how hot, cold, wet, or windy it might be!

Date:

Astronomy

Jul. 22, 2013 Rise Set
Actual Time 4:53 AM EDT 8:47 PM EDT
Civil Twilight 4:10 AM EDT 9:29 PM EDT
Nautical Twilight 3:10 AM EDT 10:29 PM EDT
Astronomical Twilight 1:16 AM EDT 12:16 AM EDT
Moon 8:18 PM EDT (7/22) 4:54 AM EDT (7/22)
Length of Visible Light 17h 18m
Length of Day
15h 53m
Full, 100% of the Moon is Illuminated
Jul 22
Full
Jul 22
Full
Jul 29
Last Quarter
Aug 6
New
Aug 14
First Quarter

Hourly Weather History & Observations

Time (EDT) Temp. Windchill Dew Point Humidity Pressure Visibility Wind Dir Wind Speed Gust Speed Precip Events Conditions
12:00 AM 47.8 °F - 47.7 °F 99% 29.86 in - SW 4.6 mph - N/A   Unknown
1:00 AM 47.8 °F - 47.3 °F 98% 29.86 in - WSW 5.8 mph - N/A   Unknown
2:00 AM 47 °F - 46 °F 93% 29.86 in - WSW 6.9 mph - -  
2:00 AM 47.5 °F - 45.9 °F 94% 29.86 in - WSW 6.9 mph - N/A   Unknown
3:00 AM 46.2 °F 43.3 °F 44.2 °F 93% 29.86 in - WSW 5.8 mph - N/A   Unknown
4:00 AM 45.7 °F 40.6 °F 44.1 °F 94% 29.86 in - West 10.4 mph - N/A   Unknown
5:00 AM 46.4 °F 40.7 °F 43.9 °F 91% 29.87 in - WNW 12.7 mph - N/A   Unknown
6:00 AM 46.2 °F 40.8 °F 42.6 °F 87% 29.88 in - West 11.5 mph - N/A   Unknown
7:00 AM 47.8 °F - 41.4 °F 78% 29.90 in - West 13.8 mph - N/A   Unknown
8:00 AM 51 °F - 43 °F 66% 29.90 in - WNW 13.8 mph - -  
8:00 AM 51.1 °F - 43.2 °F 74% 29.90 in - WNW 15.0 mph - N/A   Unknown
9:00 AM 54.3 °F - 44.1 °F 68% 29.89 in - West 6.9 mph - N/A   Unknown
10:00 AM 57.9 °F - 44.1 °F 60% 29.88 in - West 10.4 mph - N/A   Unknown
11:00 AM 58.1 °F - 45.1 °F 62% 29.87 in - WSW 9.2 mph - N/A   Unknown
12:00 PM 60.3 °F - 48.0 °F 64% 29.86 in - West 15.0 mph - N/A   Unknown
1:00 PM 62.1 °F - 49.3 °F 63% 29.84 in - West 13.8 mph - N/A   Unknown
2:00 PM 67 °F - 51 °F 47% 29.83 in - West 19.6 mph - -  
2:00 PM 66.6 °F - 51.3 °F 58% 29.83 in - West 19.6 mph - N/A   Unknown
3:00 PM 64.2 °F - 50.5 °F 61% 29.84 in - West 17.3 mph - N/A   Unknown
4:00 PM 64.8 °F - 49.3 °F 57% 29.82 in - WNW 19.6 mph - N/A   Unknown
5:00 PM 65.3 °F - 51.1 °F 60% 29.80 in - West 18.4 mph - N/A   Unknown
6:00 PM 61.2 °F - 54.7 °F 79% 29.81 in - West 6.9 mph - N/A   Unknown
7:00 PM 62.2 °F - 51.1 °F 67% 29.81 in - West 9.2 mph - N/A   Unknown
8:00 PM 60 °F - 51 °F 65% 29.80 in - West 5.8 mph - -  
8:00 PM 60.4 °F - 51.4 °F 72% 29.80 in - West 5.8 mph - N/A   Unknown
9:00 PM 53.6 °F - 48.9 °F 84% 29.80 in - SSE 2.3 mph - N/A   Unknown
10:00 PM 51.1 °F - 48.2 °F 90% 29.80 in - SE 4.6 mph - N/A   Unknown
11:00 PM 53.1 °F - 48.7 °F 85% 29.78 in - SE 6.9 mph - N/A   Unknown